STARLINK-32808, 62863

Orbit data source: Space-Track

STARLINK-32808, 62863 is a payload satellite owned by SpaceX/Seattle (US) in LEO that was launched on Sat, 01 Feb 2025 UTC via an FALCON 9 launch vehicle from the Air Force Western Test Range (AFWTR). Payload-class satellites include a variety of spacecraft equipped with specific instruments for various scientific and technological missions. These include communications satellites like Starlink; space stations such as the ISS; scientific satellites like the Hubble; Earth observation satellites from companies like Planet Labs, Umbra, and HawkEye 360; GPS; miniature CubeSats for education and research; and military/defense satellites.

Loading next visibility...
Identifier
62863, 2025-022K
Orbit
LEO
Country
Flag of USUS
Related business
Manufacturer
SpaceX/Seattle
Mission
Operational Commercial Communications
Bus & Motor
STARLINK V2M, Unknown motor
Mass
730 kg wet, ~700 kg dry
Launch date (UTC)
2025-02-01 (9 months ago)
Launch vehicle
FALCON 9
Launch site
Air Force Western Test Range (AFWTR)
Object type
Payload
Rocket body
Debris
Shape & HBR
Box + 2 Pan, 17.7 m
Radar Cross Section
33.884 m², Large (>1 m²)

Expand to show TLE details & history
Last TLE update: 1 day ago

TLE from 1 day ago
0 STARLINK-32808
1 62863U 25022K   25303.49069685  .00035870  00000-0  12167-2 0  9998
2 62863  53.1585  14.5457 0001185  87.1546 272.9591 15.30216599 41962
Epoch: 2025-10-30T11:46Z
TLE epoch observation values (Epoch: 2025-10-30T11:46:36.207Z)
Latitude
0.00001°
Longitude
158.84612°
Altitude
476.023 km
Speed
7.629 km/s
True Right ascension
00h 58m 10s
True Declination
0° 00' 00"
Sunlit
Object was in full shadow at epoch
Visualization orbit readout
Latitude
Unknown
Longitude
Unknown
Altitude
Unknown
Speed
Unknown
Apparent Right ascension
Unknown
Apparent Declination
Unknown
Sunlit
N/A
Visualization observer readout
Local Sidereal Time
14:04:53
Azimuth
Unknown
Elevation
Unknown
Doppler factor
Unknown
Orbital elements
Apogee altitude
476.234 km
Perigee altitude
474.61 km
Semi-major axis
6,853.559 km
Eccentricity
0.00012
Inclination
53.1585°
RAAN
14.5457°
Arg. of periapsis
87.1546°
True anomaly
272.94554°
Mean anomaly
272.9591°
Eccentric anomaly
272.95232°
Mean motion
3.82533 °/min
Orbital period
94.11 mins
BSTAR
0.0012167
Loading maneuver chart data...
Computing Atmospheric mass density...
Loading historical data...
Loading historical data...
Loading historical data...
Loading historical data...
Loading historical data...
Loading historical data...
Loading historical data...

Documentation

Showing up to 5 results
|